When you browse on this site, cookies collect data to enhance your experience and personalize the content and advertising you see.
Visit our Privacy Policy to learn more. By continuing to use the site, you agree to this use of cookies and data.
  • In Latvia
  • List of Countries
  • For 7 days
  • Water Temperature
  • Satellite Maps
  • Weather Map
  • Weather Widgets
  • user-avatar
    Login

    Hourly Weather Ghadamis

    Today, 19 January, Saturday

    Time Temperature Precipitation Wind Pressure Humidity
    00:00 +10°C° 0 mm 2 mps 732 mmHg 40%
    01:00 +9°C° 0 mm 3 mps 732 mmHg 40%
    02:00 +9°C° 0 mm 3 mps 732 mmHg 41%
    03:00 +9°C° 0 mm 3 mps 732 mmHg 42%
    04:00 +8°C° 0 mm 2 mps 731 mmHg 43%
    05:00 +8°C° 0 mm 2 mps 731 mmHg 43%
    06:00 +8°C° 0 mm 2 mps 732 mmHg 44%
    07:00 +7°C° 0 mm 2 mps 732 mmHg 45%
    08:00 +9°C° 0 mm 3 mps 732 mmHg 42%
    09:00 +10°C° 0 mm 3 mps 732 mmHg 38%
    10:00 +11°C° 0 mm 3 mps 732 mmHg 35%
    11:00 +12°C° 0 mm 3 mps 732 mmHg 32%
    12:00 +13°C° 0 mm 3 mps 732 mmHg 30%
    13:00 +15°C° 0 mm 4 mps 732 mmHg 27%
    14:00 +15°C° 0 mm 4 mps 731 mmHg 27%
    15:00 +15°C° 0 mm 4 mps 731 mmHg 27%
    16:00 +15°C° 0 mm 4 mps 731 mmHg 26%
    17:00 +14°C° 0 mm 4 mps 731 mmHg 29%
    18:00 +13°C° 0 mm 3 mps 732 mmHg 32%
    19:00 +12°C° 0 mm 3 mps 732 mmHg 35%
    20:00 +13°C° 0 mm 2 mps 732 mmHg 37%
    21:00 +12°C° 0 mm 2 mps 733 mmHg 38%
    22:00 +10°C° 0 mm 2 mps 733 mmHg 40%
    23:00 +10°C° 0 mm 2 mps 733 mmHg 40%

    Tomorrow, 20 January, Sunday

    Time Temperature Precipitation Wind Pressure Humidity
    00:00 +10°C° 0 mm 2 mps 733 mmHg 41%
    01:00 +10°C° 0 mm 2 mps 734 mmHg 42%
    02:00 +9°C° 0 mm 2 mps 733 mmHg 42%
    03:00 +9°C° 0 mm 2 mps 733 mmHg 42%
    04:00 +9°C° 0 mm 2 mps 733 mmHg 41%
    05:00 +9°C° 0 mm 2 mps 733 mmHg 41%
    06:00 +8°C° 0 mm 3 mps 733 mmHg 40%
    07:00 +8°C° 0 mm 3 mps 733 mmHg 39%
    08:00 +9°C° 0 mm 3 mps 734 mmHg 36%
    09:00 +10°C° 0 mm 4 mps 734 mmHg 32%
    10:00 +12°C° 0 mm 4 mps 734 mmHg 28%
    11:00 +13°C° 0 mm 5 mps 734 mmHg 28%
    12:00 +14°C° 0 mm 5 mps 734 mmHg 27%
    13:00 +15°C° 0 mm 5 mps 733 mmHg 26%
    14:00 +15°C° 0 mm 5 mps 733 mmHg 28%
    15:00 +15°C° 0 mm 5 mps 732 mmHg 29%
    16:00 +15°C° 0 mm 5 mps 732 mmHg 31%
    17:00 +14°C° 0 mm 4 mps 732 mmHg 33%
    18:00 +14°C° 0 mm 4 mps 732 mmHg 35%
    19:00 +13°C° 0 mm 3 mps 733 mmHg 37%
    20:00 +12°C° 0 mm 3 mps 733 mmHg 38%
    21:00 +12°C° 0 mm 3 mps 733 mmHg 39%
    22:00 +12°C° 0 mm 3 mps 733 mmHg 40%
    23:00 +12°C° 0 mm 3 mps 733 mmHg 40%

    Day after tomorrow, 21 January, Monday

    Time Temperature Precipitation Wind Pressure Humidity
    00:00 +11°C° 0 mm 4 mps 733 mmHg 40%
    01:00 +11°C° 0 mm 4 mps 733 mmHg 41%
    02:00 +11°C° 0 mm 4 mps 732 mmHg 39%
    03:00 +10°C° 0 mm 5 mps 732 mmHg 38%
    04:00 +10°C° 0 mm 5 mps 732 mmHg 37%
    05:00 +9°C° 0 mm 5 mps 732 mmHg 37%
    06:00 +9°C° 0 mm 5 mps 732 mmHg 36%
    07:00 +9°C° 0 mm 5 mps 732 mmHg 36%
    08:00 +10°C° 0 mm 6 mps 732 mmHg 34%
    09:00 +11°C° 0 mm 6 mps 732 mmHg 31%
    10:00 +14°C° 0 mm 7 mps 732 mmHg 29%
    11:00 +15°C° 0 mm 7 mps 732 mmHg 25%
    12:00 +17°C° 0 mm 8 mps 732 mmHg 21%
    13:00 +18°C° 0 mm 8 mps 731 mmHg 17%
    14:00 +20°C° 0 mm 8 mps 731 mmHg 17%
    15:00 +20°C° 0 mm 8 mps 730 mmHg 16%
    16:00 +20°C° 0 mm 8 mps 730 mmHg 16%
    17:00 +19°C° 0 mm 6 mps 730 mmHg 17%
    18:00 +16°C° 0 mm 5 mps 731 mmHg 19%
    19:00 +15°C° 0 mm 4 mps 731 mmHg 21%
    20:00 +14°C° 0 mm 4 mps 731 mmHg 22%
    21:00 +14°C° 0 mm 3 mps 731 mmHg 23%
    22:00 +13°C° 0 mm 3 mps 731 mmHg 25%
    23:00 +13°C° 0 mm 3 mps 731 mmHg 26%

    22 January, Tuesday

    Time Temperature Precipitation Wind Pressure Humidity
    00:00 +12°C° 0 mm 3 mps 731 mmHg 28%
    01:00 +12°C° 0 mm 3 mps 731 mmHg 29%
    02:00 +13°C° 0 mm 2 mps 731 mmHg 31%
    03:00 +12°C° 0 mm 2 mps 730 mmHg 32%
    04:00 +12°C° 0 mm 2 mps 730 mmHg 34%
    05:00 +10°C° 0 mm 2 mps 730 mmHg 36%
    06:00 +11°C° 0 mm 1 mps 730 mmHg 38%
    07:00 +10°C° 0 mm 1 mps 730 mmHg 40%
    08:00 +12°C° 0 mm 1 mps 731 mmHg 38%
    09:00 +13°C° 0 mm 1 mps 731 mmHg 36%
    10:00 +15°C° 0 mm 1 mps 731 mmHg 34%
    11:00 +16°C° 0 mm 2 mps 731 mmHg 34%
    12:00 +16°C° 0 mm 2 mps 730 mmHg 34%
    13:00 +17°C° 0 mm 3 mps 730 mmHg 34%
    14:00 +17°C° 0 mm 4 mps 729 mmHg 35%
    15:00 +16°C° 0 mm 5 mps 729 mmHg 35%
    16:00 +16°C° 0 mm 5 mps 728 mmHg 36%
    17:00 +15°C° 0 mm 5 mps 729 mmHg 39%
    18:00 +14°C° 0 mm 5 mps 729 mmHg 41%
    19:00 +13°C° 0 mm 5 mps 729 mmHg 44%
    20:00 +13°C° 0.1 mm 4 mps 729 mmHg 49%
    21:00 +12°C° 0.1 mm 3 mps 730 mmHg 53%
    22:00 +12°C° 0.1 mm 3 mps 730 mmHg 58%
    23:00 +11°C° 0 mm 3 mps 730 mmHg 59%

    23 January, Wednesday

    Time Temperature Precipitation Wind Pressure Humidity
    00:00 +11°C° 0 mm 3 mps 729 mmHg 60%
    01:00 +10°C° 0 mm 4 mps 729 mmHg 61%
    02:00 +10°C° 0 mm 3 mps 729 mmHg 61%
    03:00 +9°C° 0 mm 3 mps 729 mmHg 62%
    04:00 +9°C° 0 mm 2 mps 728 mmHg 63%
    05:00 +8°C° 0 mm 3 mps 728 mmHg 63%
    06:00 +8°C° 0 mm 3 mps 729 mmHg 63%
    07:00 +7°C° 0 mm 4 mps 729 mmHg 63%
    08:00 +8°C° 0 mm 5 mps 729 mmHg 56%
    09:00 +9°C° 0 mm 6 mps 729 mmHg 49%
    10:00 +10°C° 0 mm 8 mps 729 mmHg 42%
    11:00 +11°C° 0 mm 9 mps 728 mmHg 38%
    12:00 +12°C° 0 mm 10 mps 727 mmHg 34%
    13:00 +12°C° 0 mm 11 mps 727 mmHg 30%
    14:00 +13°C° 0 mm 11 mps 726 mmHg 29%
    15:00 +13°C° 0 mm 12 mps 726 mmHg 28%
    16:00 +13°C° 0 mm 12 mps 725 mmHg 27%
    17:00 +13°C° 0 mm 11 mps 725 mmHg 29%
    18:00 +13°C° 0 mm 10 mps 725 mmHg 30%
    19:00 +12°C° 0 mm 9 mps 725 mmHg 31%
    20:00 +12°C° 0 mm 8 mps 726 mmHg 34%
    21:00 +12°C° 0 mm 7 mps 726 mmHg 38%
    22:00 +11°C° 0 mm 6 mps 726 mmHg 41%
    23:00 +11°C° 0 mm 6 mps 726 mmHg 43%

    24 January, Thursday

    Time Temperature Precipitation Wind Pressure Humidity
    00:00 +10°C° 0 mm 5 mps 726 mmHg 44%
    01:00 +10°C° 0 mm 5 mps 726 mmHg 46%
    02:00 +9°C° 0 mm 6 mps 726 mmHg 45%
    03:00 +9°C° 0 mm 8 mps 725 mmHg 43%
    04:00 +8°C° 0 mm 9 mps 725 mmHg 42%
    05:00 +9°C° 0 mm 8 mps 725 mmHg 42%
    06:00 +9°C° 0 mm 7 mps 725 mmHg 42%
    07:00 +8°C° 0 mm 7 mps 725 mmHg 42%
    08:00 +9°C° 0 mm 7 mps 725 mmHg 40%
    09:00 +10°C° 0 mm 8 mps 726 mmHg 38%
    10:00 +11°C° 0 mm 9 mps 727 mmHg 35%
    11:00 +12°C° 0 mm 9 mps 726 mmHg 35%
    12:00 +13°C° 0 mm 9 mps 726 mmHg 34%
    13:00 +13°C° 0 mm 9 mps 725 mmHg 34%
    14:00 +15°C° 0 mm 9 mps 725 mmHg 33%
    15:00 +14°C° 0 mm 10 mps 725 mmHg 32%
    16:00 +16°C° 0 mm 10 mps 724 mmHg 31%
    17:00 +15°C° 0 mm 8 mps 724 mmHg 32%
    18:00 +14°C° 0 mm 7 mps 725 mmHg 33%
    19:00 +14°C° 0 mm 5 mps 725 mmHg 34%
    20:00 +13°C° 0 mm 5 mps 725 mmHg 34%
    21:00 +13°C° 0 mm 5 mps 726 mmHg 34%
    22:00 +13°C° 0 mm 5 mps 726 mmHg 34%
    23:00 +12°C° 0 mm 4 mps 726 mmHg 33%
    Show more